Showing default

ANGOSAT 2, 54033

Orbit data source: Space-Track

ANGOSAT 2, 54033 is a payload satellite owned by GGPEN (AO) in GEO that was launched on Wed, 12 Oct 2022 UTC via a PROTON-M/DM-3 launch vehicle from the Tyuratam Missile And Space Complex (TTMTR). Payload-class satellites include a variety of spacecraft equipped with specific instruments for various scientific and technological missions. These include communications satellites like Starlink; space stations such as the ISS; scientific satellites like the Hubble; Earth observation satellites from companies like Planet Labs, Umbra, and HawkEye 360; GPS; miniature CubeSats for education and research; and military/defense satellites.

Not visible in the next 10 days
Identifier
54033, 2022-131A
Orbit
GEO
Country
Flag of AOAO / AGO
Related business
Manufacturer
Resehetnev ISS
Mission
Operational Civil Communications
Bus & Motor
EKSPRESS-1000N, AOCS
Mass
2,150 kg wet, ~1,800 kg dry
Launch date (UTC)
2022-10-12 (3 years ago)
Launch vehicle
PROTON-M/DM-3
Launch site
Tyuratam Missile And Space Complex (TTMTR)
Object type
Payload
Rocket body
Debris
Shape & HBR
Box + 2 Pan, 7.5 m
Radar Cross Section
16.987 m², Large (>1 m²)

Expand to show TLE details & history
Last TLE update: 5 days ago

TLE from 5 days ago
0 ANGOSAT 2
1 54033U 22131A   25253.80749870  .00000133  00000-0  00000-0 0  9991
2 54033   0.0109 158.7482 0001450 118.9186  26.1172  1.00272840 10662
Epoch: 2025-09-10T19:22Z
TLE epoch observation values (Epoch: 2025-09-10T19:22:47.887Z)
Latitude
0.02105°
Longitude
23.00076°
Altitude
35,780.311 km
Speed
3.075 km/s
True Right ascension
20h 15m 06s
True Declination
0° 01' 16"
Sunlit
Object was in daylight at epoch
Visualization orbit readout
Latitude
Unknown
Longitude
Unknown
Altitude
Unknown
Speed
Unknown
Apparent Right ascension
Unknown
Apparent Declination
Unknown
Sunlit
N/A
Visualization observer readout
Local Sidereal Time
15:50:43
Azimuth
Unknown
Elevation
Unknown
Doppler factor
Unknown
Orbital elements
Apogee altitude
35,793.484 km
Perigee altitude
35,781.256 km
Semi-major axis
42,165.507 km
Eccentricity
0.00015
Inclination
0.0109°
RAAN
158.7482°
Arg. of periapsis
118.9186°
True anomaly
26.12452°
Mean anomaly
26.1172°
Eccentric anomaly
26.12086°
Mean motion
0.25067 °/min
Orbital period
1,436.14 mins
BSTAR
0
Loading maneuver chart data...
Computing Atmospheric mass density...
Loading historical data...
Loading historical data...
Loading historical data...
Loading historical data...
Loading historical data...
Loading historical data...
Loading historical data...
Other satellites on launch #131 in the year 2022 (2022-10-12 UTC)

Documentation

Showing up to 5 results
|